NOAA 16 DEB

Satellite information

Favourite Embed

Satellite Type and Status

DEBRISIN ORBIT

Key statistics

Satellite NOAA 16 DEB at a glance.

Uptime

9055

Days in orbit

Revolutions

≈ 14.2

Per day

Orbit

SSO

Sun Synchronous Orbit

Inclination

98.7

Latest

Satellite identification and parameters

Extended collection of information and parameters for NOAA 16 DEB.

Object identification

Identified? True

Debris? True

Object name: NOAA 16 DEB

International designator: 2000-055CU

Object number (NORAD): 41161

Object ID (CCSDS): 41161

Country: UNITED STATES OF AMERICA (US)

Current information (Y/N): Y

RCS size: SMALL

Orbital parameters

Period: 101.462 minutes

Inclination: 98.6959 deg

SMA: 7206.003 km

Apoapsis: 854.968 km

Periapsis: 800.769 km

RAAN: 235.5966 deg

Eccentricy: 0.0037607

Argument of periapsis: 20.9976 deg

Mean anomaly: 339.2735 deg

Mean motion: 14.19257084 rev/day

Mean motion (dot): 0.00001971 rev/day2

B* drag term: 0.00095381 1/REarth

Two-line elements (TLE)

Creation date: July 6, 2025, 6:05 p.m.

Reference frame: TEME

Reference center: EARTH

Epoch: July 5, 2025, 11:25 p.m. UTC

TLE line 0: 0 NOAA 16 DEB

TLE line 1: 1 41161U 00055CU 25186.97629711 .00001971 00000-0 95381-3 0 9994

TLE line 2: 2 41161 98.6959 235.5966 0037607 20.9976 339.2735 14.19257084493800

Live tracking on map

Real-time ground track for satellite NOAA 16 DEB.

In-orbit conjunctions

A list of the most updated potential collisions computed for object NOAA 16 DEB.

Target Orbit TCA Probability of collision Miss distance Type
CZ-6A DEB SSO 2025-03-10 11:27:54 0.0001682908 417.0 (m) DEBRIS
CZ-6A DEB SSO 2024-11-15 01:05:15 0.0004753636 168.0 (m) DEBRIS

Associated space launch

The NOAA K, L and M POES satellites begin the fifth generation of improved environmental monitoring in support of NOAA missions. The instrument payload has significant improvements and additions/deletions. The instrument changes have effected the spacecraft subsystems and data formats.

NOAA 16 DEB was lifted into orbit during the mission ‘Titan II SLV | NOAA 16’, on board a Titan II SLV space rocket.

The launch took place on Sept. 21, 2000, 10:22 a.m. from Space Launch Complex 4W.

For more information about the launch, click the button.

Launch to space Titan II SLV | NOAA 16
Titan II SLV | NOAA 16

Agency: N/A

Status: Launch Successful

Launch date: Sept. 21, 2000, 10:22 a.m. UTC

Rocket: Titan II SLV

Launch pad: Space Launch Complex 4W

Location: Vandenberg SFB, CA, USA

...

Latest news about this satellite

There are no fresh news available about this satellite. Check back as we update our databases every day.


Newsletter sign-up

Weekly statistics, charts and insights to help you stay on top of the space industry.